Voltar ao catálogo

CZ-6A DEB

AtivoPO
NORAD 60628·DEBRIS·🇨🇳 China

Lançado Aug 6, 2024 de Taiyuan Satellite Launch Center

Loading…

Próximas Passagens (próximas 24 horas)

TLE

AtualizadoSource: Space-Track

Época: Sep 14, 2026, 22:24 UTC

1 60628U 24140AD  26257.93346913  .00000399  00000-0  14994-3 0  9994
2 60628  88.8334 248.1038 0003393 326.1303  33.9675 14.29693777109693

Acompanhe CZ-6A DEB em tempo real com AllMySat

Download on the App Store